sat.trackr.live / text

‹ back to catalog

STARLINK-36742

NORAD 67907 · 2026-036D

PAYLOAD ACTIVE UNKNOWN

§ Identity

Operator
Country
US
Launch date
2026-02-22
Launch site
AFETR
Launch vehicle
Mass (kg)
RCS (m²)

Purposes: comms

External: N2YO · Heavens-Above · Gunter

§ Orbital elements

Epoch: 2026-05-24T13:38:26.828448Z

Period
94.27 min
Inclination
43.0000°
Eccentricity
0.0001883
Mean motion
15.27591243 rev/d
Perigee alt
481.7 km
Apogee alt
484.3 km
Semi-major
6,861.2 km
B*
4.4478e-4
RAAN
177.0172°
Arg perigee
269.7660°
Mean anomaly
90.2976°
Rev number
1,532

§ Raw data

STARLINK-367421 67907U 26036D   26144.56836607  .00012001  00000+0  44478-3 0  99972 67907  43.0000 177.0172 0001883 269.7660  90.2976 15.27591243 15322

JSON: /api/v1/satellites/67907 · /tle

For live sub-satellite position, see the globe view (requires WebGL).

§ Visibility from observer

Set your observer location to see the next 7 days of passes ≥ 10°. The values pass through the URL so the page stays shareable.

No JS? Fill the form by hand. The geolocation button needs JavaScript.